527  
ASUS41 KPHI 070211  
RWRPHI  
 
REGIONAL WEATHER ROUNDUP  
NATIONAL WEATHER SERVICE MOUNT HOLLY NJ  
1000 PM EDT WED MAY 06 2015  
 
NOTE: "FAIR" INDICATES FEW OR NO CLOUDS BELOW 12,000 FEET WITH NO  
SIGNIFICANT WEATHER AND/OR S TO VISIBILITY
.  
 
* = STATION DOES NOT REPORT PRECIPITATION (E.G. RAIN, SNOW, ETC.)  
OR FOG.
 
 
NJZ015>026-070300-  
SOUTHERN NEW JERSEY  
 
CITY SKY/WX TMP DP RH WIND PRES REMARKS
 
POMONA CLOUDY 60 51 72 NE5 30.23R  
RIO GRANDE* CLOUDY 55 48 76 E8 30.23S  
MILLVILLE MOCLDY 64 50 60 NE7 30.22R  
WRIGHTSTOWN CLEAR 55 50 82 E2 30.22R  
MOUNT HOLLY PTCLDY 58 51 78 CALM 30.24R  
TRENTON CLEAR 58 47 66 CALM 30.24R  
 

 
NJZ001>014-070300-  
NORTHERN NEW JERSEY  
 
CITY SKY/WX TMP DP RH WIND PRES REMARKS
 
SUSSEX CLEAR 54 48 80 CALM 30.25R  
ANDOVER* N/A 53 47 79 CALM 30.24R  
MORRISTOWN CLEAR 52 48 87 CALM 30.25R  
NEWARK PTCLDY 60 47 61 CALM 30.24R  
TETERBORO CLEAR 59 44 57 SW5 30.23R  
CALDWELL CLEAR 58 46 64 CALM 30.25R  
SOMERVILLE CLEAR 55 46 71 CALM 30.23R  
ALLAIRE* CLEAR 54 45 71 CALM 30.25R  
TOMS RIVER* PTCLDY 52 48 87 CALM 30.25R  
 

 
PAZ043-044-047-054-055-060>062-066>071-070300-  
EASTERN PENNSYLVANIA  
 
CITY SKY/WX TMP DP RH WIND PRES REMARKS
 
PHILADELPHIA MOCLDY 63 50 62 E7 30.24R  
NORTH PHILA PTCLDY 61 47 59 E6 30.26R  
BLUE BELL CLEAR 57 52 82 CALM 30.24R  
DOYLESTOWN MOCLDY 57 49 74 CALM 30.24R  
QUAKERTOWN* PTCLDY 55 48 76 CALM 30.25R  
POTTSTOWN CLEAR 56 49 77 CALM 30.25R  
LANCASTER CLOUDY 59 53 80 E6 30.22R  
COATESVILLE MOCLDY 59 48 67 CALM 30.25R  
READING CLOUDY 59 49 69 CALM 30.22R  
ALLENTOWN CLOUDY 61 49 64 CALM 30.23S  
MOUNT POCONO CLEAR 49 45 86 CALM 30.25R  
HAZLETON CLOUDY 59 46 63 CALM 30.28R  
WILKES BARRE CLEAR 58 50 75 CALM 30.23R  
 

 
DEZALL-MDZ008-012-015-019-020-070300-  
DELAWARE AND EASTERN MARYLAND  
 
CITY SKY/WX TMP DP RH WIND PRES REMARKS
 
WILMINGTON CLOUDY 66 49 54 E9 30.23R  
DOVER PTCLDY 58 56 91 SE7 30.19R  
GEORGETOWN CLEAR 55 50 83 E6 30.23R  
EASTON CLEAR 63 53 70 SE5 30.25R  
PATUXENT MOCLDY 65 60 84 SE9 30.18R  
OCEAN CITY PTCLDY 54 51 90 NE7 30.22R  
WALLOPS ISLAND PTCLDY 58 56 93 NE10 30.21R  
CAMBRIDGE PTCLDY 61 52 72 E3 30.21R  
SALISBURY CLEAR 56 51 84 E6 30.22R  
 

 
PAZ001-021-NYZ056-072-MDZ011-DCZ001-070300-  
OTHER NEARBY LOCATIONS  
 
CITY SKY/WX TMP DP RH WIND PRES REMARKS
 
HARRISBURG CLOUDY 59 54 83 CALM 30.23R  
WILLIAMSPORT CLOUDY 57 55 93 CALM 30.23R  
BINGHAMTON CLEAR 57 48 72 SW5 30.23S  
NEW YORK CITY CLEAR 61 41 47 CALM 30.27R  
BALTIMORE CLOUDY 67 53 61 E9 30.21R  
WASHINGTON DC MOCLDY 72 58 61 E6 30.20R  
 

 
 
CLICK HERE TO GO TO PREVIOUS BULLETINS.

The Nexlab PA Page
The Nexlab NJ Page
The Nexlab DE Page
The Nexlab MD Page Main Text Page